Radiation Dose at Monitoring Post of Fukushima Daini Nuclear Power Station
Date,Time,MP-1(microSv/h),MP-2(microSv/h),MP-3(microSv/h),MP-4(microSv/h),MP-5(microSv/h),MP-6(microSv/h),MP-7(microSv/h),Wind Direction,Wind Velocity(m/s),Rain
2024/06/10,00:00,0.146,0.130,0.210,0.198,0.207,0.115,0.074,south,5.4,No
2024/06/10,00:10,0.147,0.131,0.211,0.196,0.204,0.114,0.074,south,5.2,No
2024/06/10,00:20,0.148,0.128,0.211,0.199,0.206,0.114,0.074,south,5.2,Yes
2024/06/10,00:30,0.145,0.130,0.209,0.196,0.206,0.114,0.074,south,4.8,Yes
2024/06/10,00:40,0.147,0.129,0.210,0.200,0.204,0.114,0.074,south,4.7,Yes
2024/06/10,00:50,0.146,0.131,0.209,0.197,0.207,0.115,0.074,south,5.8,Yes
2024/06/10,01:00,0.145,0.129,0.211,0.198,0.204,0.116,0.074,south,6.2,Yes
2024/06/10,01:10,0.147,0.130,0.209,0.198,0.206,0.114,0.074,south,6.9,Yes
2024/06/10,01:20,0.145,0.130,0.212,0.197,0.207,0.115,0.074,south,7.4,Yes
2024/06/10,01:30,0.147,0.130,0.211,0.198,0.204,0.115,0.074,south,7.6,Yes
2024/06/10,01:40,0.147,0.131,0.211,0.196,0.207,0.114,0.074,south,6.7,No
2024/06/10,01:50,0.146,0.130,0.211,0.198,0.204,0.115,0.074,south,6.9,Yes
2024/06/10,02:00,0.147,0.130,0.210,0.198,0.207,0.114,0.074,south,6.9,Yes
2024/06/10,02:10,0.146,0.129,0.212,0.197,0.207,0.114,0.075,south,6.6,Yes
2024/06/10,02:20,0.148,0.130,0.210,0.200,0.205,0.114,0.075,south,5.7,Yes
2024/06/10,02:30,0.147,0.130,0.213,0.198,0.207,0.115,0.076,south,5.6,Yes
2024/06/10,02:40,0.149,0.131,0.211,0.200,0.207,0.117,0.075,south-southeast,6.3,Yes
2024/06/10,02:50,0.147,0.131,0.213,0.199,0.209,0.116,0.076,south-southeast,7.5,Yes
2024/06/10,03:00,0.148,0.131,0.212,0.201,0.207,0.116,0.076,south-southeast,7.7,Yes
2024/06/10,03:10,0.148,0.131,0.212,0.198,0.207,0.116,0.076,south,7.5,Yes
2024/06/10,03:20,0.147,0.130,0.211,0.198,0.206,0.116,0.075,south,7.5,Yes
2024/06/10,03:30,0.148,0.131,0.211,0.201,0.208,0.116,0.076,south,7.3,Yes
2024/06/10,03:40,0.148,0.131,0.212,0.198,0.208,0.115,0.076,south,5.8,Yes
2024/06/10,03:50,0.148,0.131,0.211,0.198,0.206,0.116,0.075,south,4.9,Yes
2024/06/10,04:00,0.147,0.131,0.212,0.197,0.207,0.116,0.076,south,5.4,Yes
2024/06/10,04:10,0.148,0.131,0.212,0.200,0.206,0.116,0.076,south,6.9,Yes
2024/06/10,04:20,0.146,0.131,0.212,0.197,0.208,0.116,0.076,south,5.7,Yes
2024/06/10,04:30,0.146,0.131,0.212,0.198,0.205,0.116,0.075,south,6.9,Yes
2024/06/10,04:40,0.147,0.131,0.211,0.197,0.207,0.116,0.076,south,6.9,Yes
2024/06/10,04:50,0.147,0.131,0.211,0.198,0.205,0.116,0.076,south,6.4,Yes
2024/06/10,05:00,0.146,0.131,0.211,0.197,0.206,0.116,0.076,south-southwest,6.7,Yes
2024/06/10,05:10,0.147,0.131,0.212,0.198,0.204,0.116,0.075,south-southwest,6.6,Yes
2024/06/10,05:20,0.148,0.130,0.211,0.197,0.206,0.116,0.076,south-southwest,6.5,Yes
2024/06/10,05:30,0.146,0.131,0.212,0.199,0.206,0.116,0.076,south-southwest,6.0,Yes
2024/06/10,05:40,0.148,0.130,0.211,0.198,0.206,0.116,0.076,south-southwest,6.7,Yes
2024/06/10,05:50,0.147,0.131,0.211,0.199,0.205,0.116,0.076,south-southwest,7.4,Yes
2024/06/10,06:00,0.148,0.131,0.211,0.198,0.205,0.117,0.077,south-southwest,6.7,Yes
2024/06/10,06:10,0.147,0.133,0.212,0.198,0.205,0.117,0.076,south-southwest,6.2,Yes
2024/06/10,06:20,0.149,0.131,0.211,0.197,0.205,0.117,0.077,south-southwest,5.6,Yes
2024/06/10,06:30,0.147,0.132,0.211,0.198,0.206,0.117,0.077,south-southwest,6.6,Yes
2024/06/10,06:40,0.149,0.132,0.210,0.196,0.207,0.117,0.077,south-southwest,6.4,Yes
2024/06/10,06:50,0.148,0.131,0.211,0.198,0.205,0.117,0.077,south-southwest,7.3,Yes
2024/06/10,07:00,0.147,0.130,0.209,0.197,0.206,0.117,0.076,south-southwest,6.2,Yes
2024/06/10,07:10,0.147,0.131,0.210,0.199,0.205,0.116,0.077,south-southwest,4.5,Yes
2024/06/10,07:20,0.147,0.130,0.210,0.196,0.205,0.116,0.076,southwest,4.8,Yes
2024/06/10,07:30,0.146,0.131,0.210,0.197,0.205,0.117,0.076,south-southwest,4.3,Yes
2024/06/10,07:40,0.147,0.131,0.208,0.195,0.203,0.116,0.076,south-southwest,5.3,Yes
2024/06/10,07:50,0.147,0.130,0.210,0.198,0.204,0.116,0.077,south-southwest,5.5,Yes
2024/06/10,08:00,0.147,0.129,0.209,0.195,0.203,0.116,0.076,south-southwest,6.1,Yes
2024/06/10,08:10,0.146,0.130,0.209,0.195,0.205,0.116,0.075,south-southwest,5.6,Yes
2024/06/10,08:20,0.145,0.130,0.207,0.194,0.202,0.115,0.075,south-southwest,3.7,Yes
2024/06/10,08:30,0.147,0.129,0.208,0.195,0.204,0.115,0.074,south-southwest,4.6,No
2024/06/10,08:40,0.146,0.129,0.207,0.195,0.204,0.115,0.075,south-southwest,4.8,No
2024/06/10,08:50,0.145,0.129,0.207,0.194,0.201,0.113,0.075,south-southwest,5.6,No
2024/06/10,09:00,0.145,0.128,0.207,0.195,0.203,0.114,0.074,south-southwest,5.1,No
2024/06/10,09:10,0.145,0.128,0.206,0.193,0.202,0.113,0.074,south-southwest,4.7,No
2024/06/10,09:20,0.144,0.129,0.206,0.193,0.201,0.113,0.075,south-southwest,5.1,No
2024/06/10,09:30,0.146,0.129,0.205,0.195,0.205,0.115,0.073,south,4.5,No
2024/06/10,09:40,0.145,0.128,0.205,0.193,0.202,0.113,0.073,south,4.8,No
2024/06/10,09:50,0.143,0.127,0.204,0.192,0.201,0.113,0.073,south,4.9,No
2024/06/10,10:00,0.143,0.127,0.207,0.194,0.201,0.113,0.073,south,3.8,No
2024/06/10,10:10,0.145,0.129,0.206,0.193,0.204,0.114,0.073,south,4.8,No
2024/06/10,10:20,0.146,0.128,0.205,0.193,0.205,0.113,0.073,south,3.5,No
2024/06/10,10:30,0.144,0.128,0.205,0.193,0.202,0.113,0.075,south-southeast,4.7,No
2024/06/10,10:40,0.143,0.128,0.207,0.195,0.201,0.113,0.073,south,4.9,No
2024/06/10,10:50,0.143,0.128,0.208,0.194,0.200,0.114,0.073,south-southeast,4.9,No
2024/06/10,11:00,0.143,0.129,0.207,0.193,0.201,0.113,0.073,south-southeast,5.4,No
2024/06/10,11:10,0.143,0.128,0.206,0.193,0.205,0.114,0.073,south-southeast,5.0,No
2024/06/10,11:20,0.144,0.128,0.206,0.192,0.203,0.114,0.073,south,6.0,No
2024/06/10,11:30,0.144,0.128,0.206,0.193,0.203,0.114,0.074,south-southeast,6.6,No
2024/06/10,11:40,0.143,0.128,0.205,0.196,0.202,0.113,0.073,south-southeast,6.2,No
2024/06/10,11:50,0.144,0.128,0.205,0.196,0.201,0.114,0.073,south,6.4,No
2024/06/10,12:00,0.147,0.128,0.209,0.192,0.203,0.115,0.073,south-southeast,6.4,No
2024/06/10,12:10,0.147,0.130,0.208,0.194,0.204,0.113,0.073,south-southeast,7.9,No
2024/06/10,12:20,0.145,0.129,0.207,0.194,0.204,0.114,0.074,south,7.9,No
2024/06/10,12:30,0.145,0.128,0.206,0.195,0.200,0.114,0.073,south-southeast,8.2,No
2024/06/10,12:40,0.144,0.127,0.206,0.196,0.203,0.115,0.074,south-southeast,8.2,No
2024/06/10,12:50,0.146,0.130,0.209,0.194,0.205,0.114,0.074,south-southeast,8.2,No
2024/06/10,13:00,0.147,0.130,0.208,0.196,0.203,0.114,0.074,south-southeast,8.1,No
2024/06/10,13:10,0.146,0.129,0.207,0.196,0.202,0.114,0.073,south,9.2,No
2024/06/10,13:20,0.144,0.128,0.206,0.194,0.201,0.113,0.074,south-southeast,8.6,No
2024/06/10,13:30,0.144,0.129,0.206,0.193,0.201,0.114,0.073,south-southeast,7.6,No
2024/06/10,13:40,0.146,0.129,0.209,0.194,0.203,0.114,0.075,south-southeast,9.0,No
2024/06/10,13:50,0.147,0.129,0.207,0.194,0.206,0.114,0.073,south-southeast,9.3,No
2024/06/10,14:00,0.146,0.129,0.208,0.197,0.205,0.115,0.074,south-southeast,10.3,No
2024/06/10,14:10,0.145,0.128,0.207,0.195,0.203,0.114,0.073,south,10.4,No
2024/06/10,14:20,0.144,0.129,0.206,0.194,0.202,0.114,0.073,south-southeast,9.8,No
2024/06/10,14:30,0.144,0.130,0.206,0.193,0.202,0.114,0.073,south-southeast,9.0,No
2024/06/10,14:40,0.144,0.129,0.207,0.193,0.201,0.114,0.074,south-southeast,9.5,No
2024/06/10,14:50,0.144,0.129,0.206,0.194,0.202,0.115,0.073,south,9.5,No
2024/06/10,15:00,0.145,0.128,0.206,0.195,0.203,0.114,0.073,south-southeast,10.6,No
2024/06/10,15:10,0.145,0.128,0.207,0.198,0.203,0.114,0.073,south-southeast,10.3,No
2024/06/10,15:20,0.144,0.129,0.210,0.196,0.202,0.115,0.073,south-southeast,10.6,No
2024/06/10,15:30,0.143,0.128,0.210,0.196,0.202,0.114,0.074,south-southeast,9.8,No
2024/06/10,15:40,0.146,0.128,0.209,0.194,0.204,0.114,0.074,south-southeast,9.8,No
2024/06/10,15:50,0.147,0.130,0.207,0.196,0.207,0.115,0.074,south,10.1,No
2024/06/10,16:00,0.147,0.130,0.209,0.197,0.205,0.115,0.073,south-southeast,10.1,No
2024/06/10,16:10,0.145,0.129,0.210,0.195,0.204,0.114,0.073,south,10.1,No
2024/06/10,16:20,0.147,0.129,0.208,0.197,0.206,0.116,0.074,south-southeast,9.3,No
2024/06/10,16:30,0.147,0.129,0.210,0.198,0.205,0.115,0.074,south,9.0,No
2024/06/10,16:40,0.145,0.129,0.210,0.195,0.204,0.115,0.074,south,11.1,No
2024/06/10,16:50,0.145,0.130,0.208,0.197,0.207,0.114,0.073,south,11.2,No
2024/06/10,17:00,0.148,0.130,0.210,0.197,0.205,0.115,0.074,south-southeast,10.1,No
2024/06/10,17:10,0.146,0.129,0.210,0.194,0.202,0.114,0.074,south,10.6,No
2024/06/10,17:20,0.145,0.131,0.209,0.197,0.202,0.115,0.074,south,10.6,No
2024/06/10,17:30,0.147,0.130,0.210,0.197,0.206,0.114,0.074,south-southeast,10.1,No
2024/06/10,17:40,0.146,0.130,0.208,0.196,0.205,0.115,0.073,south,9.5,No
2024/06/10,17:50,0.145,0.130,0.210,0.198,0.203,0.115,0.074,south,8.4,No
2024/06/10,18:00,0.145,0.129,0.209,0.195,0.205,0.114,0.075,south,8.7,No
2024/06/10,18:10,0.147,0.130,0.209,0.197,0.206,0.115,0.074,south,8.2,No
2024/06/10,18:20,0.145,0.130,0.209,0.197,0.205,0.115,0.074,south,7.5,No
2024/06/10,18:30,0.147,0.129,0.208,0.196,0.206,0.115,0.073,south,5.0,No
2024/06/10,18:40,0.146,0.130,0.209,0.198,0.205,0.115,0.074,south,5.6,No
2024/06/10,18:50,0.146,0.130,0.209,0.195,0.205,0.115,0.073,south,5.3,No
2024/06/10,19:00,0.146,0.130,0.210,0.197,0.205,0.114,0.074,south,5.8,No
2024/06/10,19:10,0.145,0.130,0.210,0.197,0.203,0.114,0.073,south,6.1,No
2024/06/10,19:20,0.146,0.130,0.209,0.196,0.207,0.114,0.073,south,6.0,No
2024/06/10,19:30,0.146,0.129,0.209,0.197,0.204,0.115,0.074,south,6.2,No
2024/06/10,19:40,0.145,0.131,0.208,0.196,0.205,0.115,0.073,south,5.6,No
2024/06/10,19:50,0.146,0.130,0.210,0.197,0.206,0.114,0.074,south,6.0,No
2024/06/10,20:00,0.145,0.130,0.208,0.197,0.204,0.115,0.073,south,5.1,No
2024/06/10,20:10,0.146,0.130,0.210,0.196,0.206,0.114,0.075,south,5.7,No
2024/06/10,20:20,0.146,0.129,0.209,0.197,0.205,0.114,0.073,south,5.9,No
2024/06/10,20:30,0.146,0.131,0.209,0.196,0.205,0.115,0.074,south,6.5,No
2024/06/10,20:40,0.146,0.129,0.210,0.198,0.205,0.114,0.075,south,5.4,No
2024/06/10,20:50,0.145,0.130,0.208,0.197,0.203,0.115,0.074,south,6.5,No
2024/06/10,21:00,0.147,0.130,0.210,0.197,0.205,0.114,0.074,south,6.2,No
2024/06/10,21:10,0.145,0.130,0.208,0.198,0.204,0.114,0.074,south,6.6,No
2024/06/10,21:20,0.147,0.130,0.210,0.196,0.205,0.114,0.073,south,6.5,No
2024/06/10,21:30,0.145,0.130,0.209,0.198,0.204,0.114,0.074,south,6.3,No
2024/06/10,21:40,0.146,0.130,0.210,0.195,0.205,0.115,0.074,south,7.6,No
2024/06/10,21:50,0.146,0.130,0.208,0.198,0.206,0.114,0.074,south,6.0,No
2024/06/10,22:00,0.146,0.130,0.209,0.196,0.204,0.115,0.074,south,6.5,No
2024/06/10,22:10,0.147,0.130,0.210,0.197,0.207,0.116,0.075,south,5.9,No
2024/06/10,22:20,0.146,0.131,0.210,0.196,0.204,0.114,0.073,south,6.4,No
2024/06/10,22:30,0.147,0.129,0.209,0.196,0.207,0.114,0.074,south,6.0,No
2024/06/10,22:40,0.146,0.130,0.210,0.196,0.205,0.115,0.074,south,5.3,No
2024/06/10,22:50,0.146,0.130,0.209,0.196,0.205,0.114,0.074,south,5.2,No
2024/06/10,23:00,0.146,0.130,0.210,0.198,0.206,0.115,0.074,south,4.8,No
2024/06/10,23:10,0.145,0.128,0.211,0.196,0.206,0.114,0.074,south,4.8,No
2024/06/10,23:20,0.146,0.130,0.209,0.198,0.205,0.115,0.074,south-southwest,3.7,No
2024/06/10,23:30,0.146,0.128,0.210,0.197,0.204,0.115,0.074,south-southwest,4.0,No
2024/06/10,23:40,0.146,0.131,0.209,0.197,0.206,0.115,0.074,south-southwest,3.8,No
2024/06/10,23:50,0.146,0.130,0.210,0.197,0.205,0.115,0.074,south-southwest,3.8,No
